Content
SEND FEEDBACK

Daily
Averages
Monthly
Summary
Canada

QUEBEC CITY, QUEBEC


Home > North America > Canada > Quebec
Elevation: 239 feet     Latitude: 46 48N     Longitude: 071 23W

WEATHER
 
SELECT A DAY
Number of Records: 198,385;   Date Range: 6/30/96 - 12/26/14
 
SHARE

PRINT THIS DATA

[ ← Previous Day ]
WEATHER ALMANAC - JULY 2, 2014
[ Next Day → ]
[ °C ]   °F
Weather ElementAverageHighLow
Temperature77 °F84.2 °F (5:00 pm)69.8 °F (10:00 am)
Dewpoint68.5 °F71.6 °F (4:00 pm)64.4 °F (2:00 pm)
Humidity74.6 %100 % (12:00 am)53 % (11:00 am)
Barometer29.72 in29.78 in (11:00 pm)29.60 in (11:00 am)
Wind Speed9.5 mph20.7 mph (9:00 am)
Wind Gust28.8 mph (12:00 am)
Weather ElementAverage
Visibility23.2 mi
Wind DirectionWSW (232.4 °)

Weather ElementTotal
Precipitation---
Cooling Degree Days12 (Base 65)
Growing Degree Days27 (Base 50)
Averaged from 34 records on July 2, 2014
WEATHER CONDITIONS BREAKOUT
WIND DIRECTION BREAKOUT
WEATHER BY HOUR - JULY 2, 2014
[ °C ]   °F
Local TimeTemperatureDewpointHumidityBarometerVisibilityWind DirectionWind SpeedGust SpeedPrecipitationEventsConditions
12:00 AM73.4 °F71.6 °F94 %29.60 in8.0 miSW (230°)3.5 mphMostly Cloudy
1:00 AM73.4 °F71.6 °F94 %29.62 in8.0 miWSW (240°)4.6 mphMostly Cloudy
2:00 AM73.0 °F71.0 °F90 %29.62 inWSW (240°)4.6 mph
2:00 AM71.6 °F71.6 °F100 %29.63 in12.0 miWest (260°)3.5 mphMostly Cloudy
3:00 AM71.6 °F71.6 °F100 %29.64 in10.0 miWSW (240°)6.9 mphOvercast
4:00 AM71.6 °F69.8 °F94 %29.66 in12.0 miWSW (250°)4.6 mphMostly Cloudy
5:00 AM71.0 °F69.0 °F91 %29.67 inWSW (240°)3.5 mph
5:00 AM69.8 °F68.0 °F94 %29.68 in14.0 miWSW (250°)5.8 mphScattered Clouds
6:00 AM71.6 °F68.0 °F88 %29.70 in20.0 miSW (230°)8.1 mphMostly Cloudy
7:00 AM73.4 °F68.0 °F83 %29.71 in20.0 miSW (230°)13.8 mphScattered Clouds
8:00 AM75.0 °F69.0 °F75 %29.71 inWSW (240°)9.2 mph
8:00 AM75.2 °F68.0 °F78 %29.72 in20.0 miWSW (250°)12.7 mph19.6 mphPartly Cloudy
9:00 AM78.8 °F68.0 °F69 %29.73 in30.0 miWSW (250°)17.3 mphPartly Cloudy
10:00 AM80.6 °F69.8 °F70 %29.73 in30.0 miWSW (240°)12.7 mph20.7 mphScattered Clouds
11:00 AM81.0 °F67.0 °F53 %29.72 inWSW (250°)11.5 mph
11:00 AM82.4 °F66.2 °F58 %29.73 in30.0 miWSW (240°)20.7 mph26.5 mphMostly Cloudy
12:00 PM84.2 °F68.0 °F58 %29.74 in30.0 miWSW (240°)17.3 mph24.2 mphMostly Cloudy
1:00 PM82.4 °F66.2 °F58 %29.75 in30.0 miSW (220°)20.7 mph28.8 mphMostly Cloudy
2:00 PM82.0 °F68.0 °F53 %29.75 inWSW (240°)10.4 mph
2:00 PM84.2 °F69.8 °F62 %29.75 in30.0 miSW (230°)12.7 mph23.0 mphMostly Cloudy
3:00 PM82.4 °F68.0 °F62 %29.75 in30.0 miSW (230°)15.0 mph24.2 mphMostly Cloudy
4:00 PM82.4 °F69.8 °F66 %29.74 in30.0 miSSW (210°)12.7 mph18.4 mphMostly Cloudy
5:00 PM81.0 °F69.0 °F59 %29.72 inSW (220°)4.6 mph
5:00 PM80.6 °F69.8 °F70 %29.73 in30.0 miSSW (200°)10.4 mph17.3 mphMostly Cloudy
5:30 PM77.0 °F68.0 °F74 %29.74 in30.0 miSSW (200°)15.0 mph27.6 mphRainLight Rain Showers
5:54 PM80.6 °F69.8 °F70 %29.73 in30.0 miSSW (210°)9.2 mphMostly Cloudy
6:00 PM80.6 °F68.0 °F65 %29.73 in30.0 miSW (220°)10.4 mphMostly Cloudy
7:00 PM82.4 °F68.0 °F62 %29.75 in30.0 miSW (220°)11.5 mphMostly Cloudy
8:00 PM79.0 °F66.0 °F56 %29.74 inSW (220°)5.8 mph
8:00 PM78.8 °F68.0 °F69 %29.75 in30.0 miSouth (180°)6.9 mphMostly Cloudy
9:00 PM75.2 °F68.0 °F78 %29.77 in30.0 miWest (270°)3.5 mphPartly Cloudy
10:00 PM71.6 °F66.2 °F83 %29.78 in15.0 miWSW (240°)4.6 mphPartly Cloudy
11:00 PM72.0 °F66.0 °F76 %29.77 inWSW (240°)3.5 mph
11:00 PM69.8 °F64.4 °F83 %29.78 in15.0 miSW (230°)5.8 mphPartly Cloudy
Hourly data recorded from CYQB, located miles away from Quebec City, Quebec







STORIES FROM OUR PARTNERS